Simultaneous Nadir Overpasses (SNOs) Predictions

Prediction of SNOs between METOP-C and LANDSAT-8 Satellite Orbit:

Table of predicted SNOs for the next 14.0 days since TLE Epoch: 1/28/2023
Index Date (METOP-C) Time (METOP-C) Lat,Lon (METOP-C) SZA (METOP-C ) Date (LANDSAT-8) Time (LANDSAT-8) Lat,Lon (LANDSAT-8) SZA (LANDSAT-8 ) Distance(km) Time Diff (sec)
1 01/30/2023 13:35:21 -81.08,-165.18 79.75 01/30/2023 13:36:29 -81.08,-165.07 79.72 1.96 68
2 01/30/2023 14:26:00 81.11, 2.85 100.33 01/30/2023 14:25:54 81.11, 2.99 100.34 2.41 6
3 02/02/2023 09:09:43 -81.10, -98.25 80.49 02/02/2023 09:10:42 -81.11, -98.24 80.46 0.67 59
4 02/02/2023 10:00:23 81.11, 69.32 99.54 02/02/2023 10:00:08 81.11, 69.43 99.54 1.91 15
5 02/05/2023 04:44:08 -81.09, -32.13 81.36 02/05/2023 04:44:57 -81.09, -31.97 81.32 2.90 49
6 02/05/2023 05:34:46 81.12, 136.10 98.74 02/05/2023 05:34:22 81.12, 136.04 98.73 1.13 24
7 02/08/2023 00:18:32 -81.09, 34.28 82.22 02/08/2023 00:19:11 -81.09, 34.46 82.19 3.04 39
8 02/08/2023 01:09:10 81.12,-157.56 97.87 02/08/2023 01:08:36 81.12,-157.55 97.85 0.35 34
9 02/10/2023 19:52:54 -81.10, 101.00 83.09 02/10/2023 19:53:23 -81.10, 101.04 83.07 0.74 29



Historial Predications of SNOs between METOP-C and LANDSAT-8
